Location: D?uga
(50.2667°N, 19.7833°E)
Time: 16:09:48
(UTC+00:00)

Cosmos 2237 - Pass Details

Date: 23 May 2024
Orbit: 844 x 857 km, 70.8° (Epoch: 12 June)

Event Time Altitude Azimuth Distance (km) Brightness Sun altitude
Rises 00:11:27 0° 329° (NNW) 3,441 7.9 -16.1°
Reaches altitude 10° 00:13:55 10° 329° (NNW) 2,501 7.1 -16.0°
Maximum altitude 00:19:40 83° 244° (WSW) 870 4.2 -15.6°
Drops below altitude 10° 00:25:24 10° 156° (SSE) 2,483 6.3 -15.2°
Enters shadow 00:25:53 - 156° (SSE) 2,669 6.4 -15.2°
